[Iaude] MPEC T106: 2023 TF3 [a=2.37,e=0.72,i=7.4,H=25.6]
    mpec at marsden.cfa.harvard.edu 
    mpec at marsden.cfa.harvard.edu
       
    Sun Oct  8 10:34:36 EDT 2023
    
    
  
M.P.E.C. 2023-T106                              Issued 2023 October 8, 14:33 UT
     The Minor Planet Electronic Circulars contain information on unusual
         minor planets, routine data on comets and natural satellites,
         and occasional editorial announcements.  They are published
    on behalf of Division F of the International Astronomical Union by the
          Minor Planet Center, Smithsonian Astrophysical Observatory,
                          Cambridge, MA 02138, U.S.A.
			  
             Prepared using the Tamkin Foundation Computer Network
                              MPC at CFA.HARVARD.EDU
            URL https://www.minorplanetcenter.net/    ISSN 1523-6714
                                    2023 TF3                                    
Observations:
     K23T03F* C2023 10 06.41792901 08 17.076-04 20 28.32         20.88wXET106F51
     K23T03F  C2023 10 06.43215701 08 20.319-04 22 46.05         20.85wXET106F51
     K23T03F  C2023 10 06.44632601 08 23.585-04 25 05.21         20.85wXET106F51
     K23T03F  C2023 10 06.46051201 08 26.852-04 27 24.34         20.79wXET106F51
     K23T03F  C2023 10 06.54915501 08 47.913-04 42 04.14         20.32GVET106F52
     K23T03F  C2023 10 06.54979201 08 48.067-04 42 10.36         21.11GVET106F52
     K23T03F KC2023 10 06.98651001 11 02.68 -06 00 40.9          20.7 GVET106L01
     K23T03F KC2023 10 06.98847901 11 03.20 -06 01 03.2          20.3 GVET106L01
     K23T03F KC2023 10 06.99048601 11 03.82 -06 01 25.7          20.6 GVET106L01
     K23T03F KC2023 10 06.99287501 11 04.48 -06 01 52.6          20.4 GVET106L01
     K23T03F KC2023 10 06.99515201 11 05.12 -06 02 18.9          20.3 GVET106L01
     K23T03F KB2023 10 07.05682001 11 24.23 -06 14 06.7          20.7 GVET106I93
     K23T03F KB2023 10 07.06304701 11 25.99 -06 15 18.6          20.6 GVET106I93
     K23T03F KB2023 10 07.06916701 11 27.82 -06 16 29.3          20.6 GVET106I93
     K23T03F 7C2023 10 07.14008501 11 48.782-06 30 10.18         20.5 GVET106Z84
     K23T03F 7C2023 10 07.14401801 11 49.953-06 30 55.94         21.4 GVET106Z84
     K23T03F 7C2023 10 07.14794501 11 51.174-06 31 43.20         20.6 GVET106Z84
     K23T03F  C2023 10 07.26316701 12 38.199-06 54 54.45         20.6 GVET106654
     K23T03F  C2023 10 07.27118601 12 40.669-06 56 33.52         20.6 GVET106654
     K23T03F  C2023 10 07.37978901 13 19.349-07 18 49.40         20.13GVET106F51
     K23T03F  C2023 10 07.38060301 13 19.607-07 18 58.97         20.49GVET106F51
     K23T03F  C2023 10 07.41315601 13 25.048-07 26 20.49         20.6 GVET106654
     K23T03F  C2023 10 07.42117401 13 27.643-07 28 03.43         20.6 GVET106654
Observer details:
654 Table Mountain Observatory, Wrightwood-PHMC.  Observers N. Evans, P. Choi,
    N. Saini, C. Zhai, R. Trahan, M. Shao.  1.0-m Reflector + CCD.
F51 Pan-STARRS 1, Haleakala.  Observers J. Bulger, T. Lowe, P. Minguez, A.
    Schultz, I. Smith, K. Chambers.  Measurers K. Chambers, T. de Boer, J.
    Bulger, J. Fairlamb, H. Gao, M. Huber, C.-C. Lin, T. Lowe, E. Magnier, P.
    Minguez, Y. Ramanjooloo, A. Schultz, I. Smith, R. Wainscoat, R. Weryk, S.
    Chastel.  1.8-m Ritchey-Chretien + CCD.
F52 Pan-STARRS 2, Haleakala.  Observers J. Bulger, K. Chambers, T. Dukes, T.
    Lowe, P. Minguez, A. Schultz, I. Smith.  Measurers S. Chastel, J.
    Fairlamb, M. Huber, Y. Ramanjooloo, R. Wainscoat, R. Weryk.  1.8-m
    Ritchey-Chretien + CCD.
I93 St Pardon de Conques.  Observer F. Losse.  0.40-m f/3.7 reflector + CMO.
L01 Visnjan Observatory, Tican.  Observer K. Korlevic.  1.0-m f/2.9 reflector
    + CCD.
Z84 Calar Alto-Schmidt.  Observers F. Ocana, M. Micheli, R. Kresken, L.
    Conversi.  Measurers F. Ocana, M. Micheli.  0.8-m f/3 Schmidt + CCD.
Orbital elements:
2023 TF3                                                 Earth MOID = 0.0232 AU
Epoch 2023 Sept. 13.0 TT = JDT 2460200.5                Bell                    
M 339.85550              (2000.0)            P               Q                  
n   0.26980787     Peri.  271.28314     -0.13534949     -0.99069027             
a   2.3719178      Node   186.54997     +0.95233733     -0.12601431             
e   0.7193066      Incl.    7.35595     +0.27337543     -0.05150898             
P   3.65           H   25.64          G   0.15           U   9                  
Residuals in seconds of arc
231006 F51  0.2+  0.3-    231006 L01  0.0   0.6+    231007 Z84  0.3+  0.3-
231006 F51  0.0   0.6+    231006 L01  0.3-  0.9+    231007 654  0.0   0.0
231006 F51  0.2+  0.1-    231006 L01  0.4-  0.5+    231007 654  0.0   0.0
231006 F51  0.1+  0.1-    231007 I93  0.3+  0.1-    231007 F51  0.1-  0.2-
231006 F52  0.2-  0.2-    231007 I93  0.5-  0.1+    231007 F51  0.1-  0.6+
231006 F52  0.2-  0.0     231007 I93  0.2+  0.4+    231007 654  0.0   0.3-
231006 L01  0.2-  0.3+    231007 Z84  0.4+  0.2-    231007 654  0.1-  0.3-
231006 L01  0.8-  0.3+    231007 Z84  0.0   0.5+
Ephemeris:
2023 TF3                 a,e,i = 2.37, 0.72, 7                   q = 0.6658
Date    TT    R. A. (2000) Decl.     Delta      r    Elong.  Phase     V
2023 09 08    00 38 06.0 +10 11 06   0.4333  1.4039   151.5    20.0    25.6
...
2023 09 23    00 46 13.8 +08 12 11   0.2361  1.2335   165.3    11.9    23.7
...
2023 10 01    00 54 05.5 +04 03 57   0.1406  1.1411   173.0     6.1    22.1
...
2023 10 07    01 11 07.3 -06 01 33   0.07373 1.0718   167.4    11.7    20.8
2023 10 08    01 17 22.5 -09 42 12   0.06333 1.0603   163.5    15.6    20.6
2023 10 09    01 26 13.7 -14 45 44   0.05337 1.0488   157.9    21.0    20.4
...
2023 10 15    10 11 23.8 -58 21 30   0.03641 0.9805    61.4   116.7    23.0
...
2023 10 23    12 12 17.0 -27 13 59   0.1175  0.8927    27.6   148.9    29.0
...
2023 11 07    12 36 38.7 -18 59 11   0.2994  0.7504    31.0   137.2    28.9
M. P. C. Staff               (C) Copyright 2023 MPC           M.P.E.C. 2023-T106
    
    
More information about the Iaude
mailing list